Zurück zum Katalog

ARIANE 2 DEB

AktivGTO
NORAD 27039·DEBRIS·🇫🇷 France

Gestartet Jan 27, 1989 von Guiana Space Centre

Loading…

TLE

AlterndSource: Space-Track

Epoche: Sep 14, 2026, 19:04 UTC

1 27039U 89006U   26257.79451435 -.00000057  00000-0  17417-3 0  9990
2 27039   7.9240 119.6237 7159819 348.1344 252.7655  2.26242962208187

Verfolge ARIANE 2 DEB in Echtzeit mit AllMySat

Download on the App Store